sat.trackr.live / text

‹ back to catalog

UNKNOWN

NORAD 87245

UNKNOWN UNKNOWN UNKNOWN

§ Identity

Operator
Country
Launch date
Launch site
Launch vehicle
Mass (kg)
RCS (m²)

External: N2YO · Heavens-Above

§ Orbital elements

Epoch: 2026-05-23T19:08:19.046688Z

Period
101.59 min
Inclination
65.6405°
Eccentricity
0.0426434
Mean motion
14.17502928 rev/d
Perigee alt
526.3 km
Apogee alt
1,141.4 km
Semi-major
7,211.9 km
B*
6.7765e-4
RAAN
333.8094°
Arg perigee
40.0616°
Mean anomaly
336.7675°
Rev number
63,716

§ Raw data

UNKNOWN1 87245U          26143.79744267  .00003292  00000+0  67765-3 0  99972 87245  65.6405 333.8094 0426434  40.0616 336.7675 14.17502928637163

JSON: /api/v1/satellites/87245 · /tle

For live sub-satellite position, see the globe view (requires WebGL).

§ Visibility from observer

Set your observer location to see the next 7 days of passes ≥ 10°. The values pass through the URL so the page stays shareable.

No JS? Fill the form by hand. The geolocation button needs JavaScript.